Simultaneous Nadir Overpasses (SNOs) Predictions

Prediction of SNOs between AQUA and METOP-A Satellite Orbit:

Table of predicted SNOs for the next 14.0 days since TLE Epoch: 5/2/2020
Index Date (AQUA) Time (AQUA) Lat,Lon (AQUA) SZA (AQUA ) Date (METOP-A) Time (METOP-A) Lat,Lon (METOP-A) SZA (METOP-A ) Distance(km) Time Diff (sec)
1 05/04/2020 20:59:21 76.11,-146.37 60.01 05/04/2020 20:58:08 76.02,-146.78 59.96 15.07 73
2 05/04/2020 21:48:48 -76.19, 21.03 119.92 05/04/2020 21:48:46 -76.20, 21.14 119.91 3.11 2
3 05/04/2020 22:38:16 76.21,-171.39 60.10 05/04/2020 22:39:25 76.23,-171.41 60.11 3.02 69
4 05/07/2020 16:33:35 76.12, -79.96 59.24 05/07/2020 16:32:28 76.13, -80.08 59.27 3.28 67
5 05/07/2020 17:23:02 -76.19, 87.47 120.70 05/07/2020 17:23:09 -76.17, 87.39 120.71 2.89 7
6 05/07/2020 18:12:33 76.36,-105.45 59.49 05/07/2020 18:13:44 76.39,-104.53 59.46 24.18 71
7 05/10/2020 12:07:49 76.14, -13.56 58.51 05/10/2020 12:06:50 76.14, -13.68 58.53 3.20 59
8 05/10/2020 12:57:16 -76.20, 153.88 121.43 05/10/2020 12:57:31 -76.19, 153.80 121.44 2.61 15
9 05/10/2020 13:46:54 76.71, -40.20 59.15 05/10/2020 13:47:59 76.72, -36.98 58.99 82.25 65
10 05/13/2020 07:42:02 76.16, 52.81 57.83 05/13/2020 07:41:11 76.15, 52.71 57.84 2.88 51
11 05/13/2020 08:31:29 -76.21,-139.72 122.12 05/13/2020 08:31:52 -76.20,-139.80 122.13 2.59 23




NCC Satellite Simultaneous Nadir Overpasses (SNOs) Prediction Service
